Skip Page Navigation
NASA JPL Caltech
NASA Logo - Jet Propulsion Laboratory + View the NASA Portal
+ Center for Near-Earth Object Studies
JPL Home Earth Solar System Stars & Galaxies Technology
JPL Solar System Dynamics
BODIES ORBITS EPHEMERIDES TOOLS PHYSICAL DATA DISCOVERY FAQ SITE MAP
JPL Small-Body Database Browser
Search: [ help ]  
5904 Wurttemberg (1989 AE7)
Classification: Main-belt Asteroid          SPK-ID: 2005904
Ephemeris | Orbit Diagram | Orbital Elements | Mission Design | Physical Parameters | Discovery Circumstances | Close-Approach Data ]

[ hide orbit diagram ]

For accurate long-term ephemerides, please instead use our Horizons system.This orbit viewer was implemented using two-body methods, and hence should not be used for determining accurate long-term trajectories (over several years or decades) or planetary encounter circumstances.


[ revert to old Java-based viewer ]

Orbital Elements at Epoch 2459000.5 (2020-May-31.0) TDB
Reference: JPL 25 (heliocentric ecliptic J2000)
 Element Value Uncertainty (1-sigma)   Units 
e .113190316020289 3.2625e-08  
a 2.841460901308519 1.2873e-08 au
q 2.519835043930112 9.5447e-08 au
i 3.063570043973316 4.6874e-06 deg
node 313.6636099589521 6.5118e-05 deg
peri 141.1634334982467 6.8715e-05 deg
M 230.1673910184604 2.2358e-05 deg
tp 2459631.446066482988
(2022-Feb-20.94606648)
0.00011018 TDB
period 1749.487942325584
4.79
1.1889e-05
3.255e-08
d
yr
n .2057744962342834 1.3983e-09 deg/d
Q 3.163086758686925 1.433e-08 au
  Orbit Determination Parameters
   # obs. used (total)      2210  
   data-arc span      24501 days (67.08 yr)  
   first obs. used      1953-10-01  
   last obs. used      2020-10-30  
   planetary ephem.      DE431  
   SB-pert. ephem.      SB431-N16  
   condition code      0  
   norm. resid. RMS      .45948  
   source      ORB  
   producer      Otto Matic  
   solution date      2020-Nov-13 03:39:56  

Additional Information
 Earth MOID = 1.53752 au 
 Jupiter MOID = 1.98915 au 
 T_jup = 3.298 
[ show covariance matrix ]

Ephemeris | Orbit Diagram | Orbital Elements | Mission Design | Physical Parameters | Discovery Circumstances | Close-Approach Data ]

Physical Parameter Table
Parameter Symbol Value Units Sigma Reference Notes
absolute magnitude H 13.4   n/a MPO492821  
diameter diameter 9.794 km 0.166 urn:nasa:pds:neowise_diameters_albedos::2.0[mainbelt] (http://adsabs.harvard.edu/abs/2011ApJ...741...68M)  
geometric albedo albedo 0.106   0.013 urn:nasa:pds:neowise_diameters_albedos::2.0[mainbelt] (http://adsabs.harvard.edu/abs/2011ApJ...741...68M)  

5904 Wurttemberg (1989 AE7)          Discovered 1989-Jan-10 by Borngen, F. at Tautenburg
Reference: DISCOVERY.DBLast Updated: 2003-08-29

[ show close-approach data ]
Alternate Designations
 1989 AE7 = 1982 SQ10 = 1987 SJ21 
Ephemeris | Orbit Diagram | Orbital Elements | Mission Design | Physical Parameters | Discovery Circumstances | Close-Approach Data ]
ABOUT SSD CREDITS/AWARDS PRIVACY/COPYRIGHT GLOSSARY LINKS
FirstGov 2020-Dec-04 01:58 UT
(server date/time)  
NASA Home Page
Site Manager:   Ryan S. Park
Webmaster  Alan B. Chamberlin